TimeCST,TemperatureF,Dew PointF,Humidity,Sea Level PressureIn,VisibilityMPH,Wind Direction,Wind SpeedMPH,Gust SpeedMPH,PrecipitationIn,Events,Conditions,WindDirDegrees,DateUTC
12:51 AM,46.4,44.6,93,30.04,2.5,East,3.5,-,N/A,,Overcast,80,2012-12-03 06:51:00
12:53 AM,46.9,44.1,90,30.05,2.5,Calm,Calm,-,N/A,,Overcast,0,2012-12-03 06:53:00
1:41 AM,46.4,44.6,93,30.02,2.5,East,5.8,-,N/A,,Overcast,100,2012-12-03 07:41:00
1:53 AM,46.9,44.1,90,30.04,2.5,ESE,5.8,-,N/A,,Overcast,120,2012-12-03 07:53:00
2:12 AM,46.4,44.6,93,30.03,1.2,SE,4.6,-,N/A,,Overcast,130,2012-12-03 08:12:00
2:24 AM,46.4,44.6,93,30.02,0.5,ESE,5.8,-,N/A,Fog,Fog,120,2012-12-03 08:24:00
2:36 AM,46.4,44.6,93,30.02,0.2,ESE,4.6,-,N/A,Fog,Fog,120,2012-12-03 08:36:00
2:53 AM,46.9,45.0,93,30.02,0.2,SE,5.8,-,N/A,Fog,Fog,130,2012-12-03 08:53:00
3:53 AM,48.0,46.0,93,29.99,0.2,SE,6.9,-,N/A,Fog,Fog,140,2012-12-03 09:53:00
4:53 AM,48.0,46.9,96,29.98,0.2,SSE,8.1,-,N/A,Fog,Fog,150,2012-12-03 10:53:00
5:53 AM,48.9,48.0,97,29.96,0.2,SSE,6.9,-,N/A,Fog,Fog,150,2012-12-03 11:53:00
6:33 AM,50.0,48.2,94,29.95,0.2,SSE,5.8,-,N/A,Fog,Fog,150,2012-12-03 12:33:00
6:53 AM,50.0,48.9,96,29.95,0.2,SSE,6.9,-,N/A,Fog,Fog,150,2012-12-03 12:53:00
7:53 AM,53.1,51.1,93,29.94,0.2,SSE,9.2,-,0.01,Fog,Fog,150,2012-12-03 13:53:00
9:53 AM,57.9,55.9,93,29.91,0.2,South,10.4,-,N/A,Fog,Fog,180,2012-12-03 15:53:00
10:00 AM,57.2,57.2,100,29.89,0.8,South,12.7,-,N/A,,Overcast,180,2012-12-03 16:00:00
10:20 AM,59.0,57.2,94,29.89,1.0,South,13.8,-,N/A,,Overcast,180,2012-12-03 16:20:00
10:53 AM,60.1,57.9,93,29.87,1.5,South,11.5,19.6,N/A,,Overcast,180,2012-12-03 16:53:00
11:28 AM,60.8,57.2,88,29.84,2.0,South,13.8,21.9,N/A,,Overcast,190,2012-12-03 17:28:00
11:50 AM,62.6,59.0,88,29.83,2.0,South,11.5,20.7,N/A,,Overcast,190,2012-12-03 17:50:00
11:53 AM,62.1,59.0,90,29.83,2.0,South,15.0,21.9,N/A,,Overcast,180,2012-12-03 17:53:00
12:34 PM,62.6,59.0,88,29.81,3.0,South,11.5,-,N/A,,Overcast,180,2012-12-03 18:34:00
12:53 PM,63.0,59.0,87,29.81,3.0,South,9.2,-,N/A,,Overcast,180,2012-12-03 18:53:00
1:53 PM,66.0,59.0,78,29.77,4.0,South,17.3,23.0,N/A,,Haze,180,2012-12-03 19:53:00
2:53 PM,64.9,59.0,81,29.73,4.0,SSE,9.2,-,N/A,,Haze,150,2012-12-03 20:53:00
3:29 PM,68.0,59.0,73,29.76,10.0,SSW,15.0,19.6,N/A,,Mostly Cloudy,210,2012-12-03 21:29:00
3:41 PM,68.0,59.0,73,29.75,10.0,South,11.5,-,N/A,,Mostly Cloudy,190,2012-12-03 21:41:00
3:53 PM,68.0,59.0,73,29.76,10.0,SSW,11.5,-,N/A,,Mostly Cloudy,210,2012-12-03 21:53:00
4:53 PM,66.9,57.0,70,29.77,10.0,SSW,16.1,23.0,N/A,,Mostly Cloudy,200,2012-12-03 22:53:00
5:53 PM,66.0,57.0,73,29.75,10.0,SSW,13.8,-,N/A,,Mostly Cloudy,200,2012-12-03 23:53:00
6:53 PM,66.0,57.0,73,29.75,8.0,SSW,19.6,32.2,0.00,Rain,Light Rain,210,2012-12-04 00:53:00
7:24 PM,62.6,57.2,82,29.76,2.0,WSW,18.4,26.5,0.10,Rain,Heavy Rain,240,2012-12-04 01:24:00
7:27 PM,64.4,57.2,77,29.75,1.8,SW,20.7,32.2,0.12,Rain,Heavy Rain,220,2012-12-04 01:27:00
7:30 PM,64.4,57.2,77,29.75,7.0,SSW,26.5,36.8,0.12,Rain,Rain,210,2012-12-04 01:30:00
7:53 PM,64.9,55.9,73,29.75,10.0,SSW,23.0,32.2,0.12,,Mostly Cloudy,210,2012-12-04 01:53:00
8:53 PM,64.0,55.9,75,29.76,10.0,SSW,17.3,26.5,N/A,,Mostly Cloudy,210,2012-12-04 02:53:00
9:32 PM,62.6,57.2,82,29.79,2.0,WSW,17.3,25.3,0.09,Rain,Heavy Rain,240,2012-12-04 03:32:00
9:46 PM,62.6,57.2,82,29.80,4.0,WSW,17.3,24.2,0.10,Rain,Light Rain,240,2012-12-04 03:46:00
9:53 PM,61.0,57.0,87,29.81,4.0,WSW,15.0,23.0,0.10,Rain,Light Rain,240,2012-12-04 03:53:00
10:53 PM,60.1,57.0,90,29.84,6.0,WSW,13.8,-,0.01,,Overcast,240,2012-12-04 04:53:00